Location: Highridge
(54.0333°N, 114.1333°W)
Time: 07:10:35
(UTC+00:00)

SO-50 - Pass Details

Date: 06 December 2023
Orbit: 608 x 660 km, 64.6° (Epoch: 02 March)

Event Time Altitude Azimuth Distance (km) Brightness Sun altitude
Exits shadow 13:24:59 30° 323° (NW) 1,168 ? -18.4°
Maximum altitude 13:25:33 31° 337° (NNW) 1,143 ? -18.3°
Drops below altitude 10° 13:29:40 10° 40° (NE) 2,036 ? -17.7°
Sets 13:32:10 0° 51° (NE) 2,936 ? -17.4°
